NOAA 16 DEB

Satellite information

Favourite Embed

Satellite Type and Status

DEBRISIN ORBIT

Key statistics

Satellite NOAA 16 DEB at a glance.

Uptime

9215

Days in orbit

Revolutions

≈ 14.2

Per day

Orbit

SSO

Sun Synchronous Orbit

Inclination

98.8

Latest

Satellite identification and parameters

Extended collection of information and parameters for NOAA 16 DEB.

Object identification

Identified? True

Debris? True

Object name: NOAA 16 DEB

International designator: 2000-055FN

Object number (NORAD): 41262

Object ID (CCSDS): 41262

Country: UNITED STATES OF AMERICA (US)

Current information (Y/N): Y

RCS size: SMALL

Orbital parameters

Period: 101.243 minutes

Inclination: 98.7882 deg

SMA: 7195.675 km

Apoapsis: 851.436 km

Periapsis: 783.645 km

RAAN: 9.328 deg

Eccentricy: 0.00471052

Argument of periapsis: 140.4004 deg

Mean anomaly: 220.0629 deg

Mean motion: 14.22313837 rev/day

Mean motion (dot): 0.00008956 rev/day2

B* drag term: 0.0039990571 1/REarth

Two-line elements (TLE)

Creation date: Dec. 10, 2025, 10:40 a.m.

Reference frame: TEME

Reference center: EARTH

Epoch: Dec. 9, 2025, 9 p.m. UTC

TLE line 0: 0 NOAA 16 DEB

TLE line 1: 1 41262U 00055FN 25343.87542647 .00008956 00000-0 39991-2 0 9996

TLE line 2: 2 41262 98.7882 9.3280 0047105 140.4004 220.0629 14.22313837512677

Live tracking on map

Real-time ground track for satellite NOAA 16 DEB.

In-orbit conjunctions

A list of the most updated potential collisions computed for object NOAA 16 DEB.

Target Orbit TCA Probability of collision Miss distance Type
METEOR 1-26 LEO 2025-01-09 22:26:58 0.0003249808 73.0 (m) PAYLOAD
METEOR 1-27 LEO 2024-08-15 05:45:14 0.001116888 259.0 (m) PAYLOAD
FENGYUN 1C DEB SSO 2024-07-12 06:08:45 0.0001577646 283.0 (m) DEBRIS

Associated space launch

The NOAA K, L and M POES satellites begin the fifth generation of improved environmental monitoring in support of NOAA missions. The instrument payload has significant improvements and additions/deletions. The instrument changes have effected the spacecraft subsystems and data formats.

NOAA 16 DEB was lifted into orbit during the mission ‘Titan II SLV | NOAA 16’, on board a Titan II SLV space rocket.

The launch took place on Sept. 21, 2000, 10:22 a.m. from Space Launch Complex 4W.

For more information about the launch, click the button.

Launch to space Titan II SLV | NOAA 16
Titan II SLV | NOAA 16

Agency: N/A

Status: Launch Successful

Launch date: Sept. 21, 2000, 10:22 a.m. UTC

Rocket: Titan II SLV

Launch pad: Space Launch Complex 4W

Location: Vandenberg SFB, CA, USA

...

Latest news about this satellite

There are no fresh news available about this satellite. Check back as we update our databases every day.


Newsletter sign-up

Weekly statistics, charts and insights to help you stay on top of the space industry.